Weather Roundup
Issued by NWS Corpus Christi, TX

Home | Current Version | Previous Version | Text Only | Print | Product List | Glossary On
Versions: 1 2 3 4 5 6 7 8 9 10 11 12 13 14 15 16 17 18 19 20 21 22 23 24 25 26 27 28 29 30 31 32 33 34 35 36 37 38 39 40 41 42 43 44 45 46 47 48 49 50
000
ASUS44 KCRP 030910
HRRCRP

SOUTH TEXAS REGIONAL WEATHER ROUNDUP
NATIONAL WEATHER SERVICE CORPUS CHRISTI TX
400 AM CDT TUE MAY 03 2016


TXZ229>244-031000-
...CORPUS CHRISTI AREA OBSERVATIONS...

CITY           SKY/WX    TMP DP  RH WIND       PRES   REMARKS
CORPUS CHRISTI CLOUDY    65  52  62 N15       30.02F
NAS CORPUS CHR CLOUDY    66  56  70 N16       30.01F
ROCKPORT       CLOUDY    64  52  64 N12G22    30.03R
KINGSVILLE NAS CLOUDY    64  54  69 N7G20     30.04R
ALICE          CLOUDY    64  51  62 N12       30.04F
FALFURRIAS     CLOUDY    66  50  57 N7        30.04R
$$

...VICTORIA AREA OBSERVATIONS...

CITY           SKY/WX    TMP DP  RH WIND       PRES   REMARKS
VICTORIA       CLOUDY    61  53  75 N10       30.04F
BEEVILLE       CLOUDY    62  54  74 N10       30.06R
PLEASANTON     CLOUDY    60  51  72 CALM      30.09R
SAN ANTONIO    CLOUDY    57  50  77 N3        30.08R
$$

...LAREDO AREA OBSERVATIONS...

CITY           SKY/WX    TMP DP  RH WIND       PRES   REMARKS
LAREDO         CLOUDY    63  51  65 N9        30.06F
COTULLA        CLOUDY    63  50  62 E3        30.08F
DEL RIO        CLEAR     53  51  93 CALM      30.10S
MCALLEN        CLOUDY    70  54  56 N8        30.04R
HEBBRONVILLE   CLOUDY    64  51  62 N5        30.06S
$$

...OTHER TEXAS OBSERVATIONS...

CITY           SKY/WX    TMP DP  RH WIND       PRES   REMARKS
BROWNSVILLE    CLOUDY    67  57  70 NW10      30.01R
HOUSTON        PTCLDY    58  53  84 N9        30.03F
COL. STATION   PTCLDY    56  52  86 N6        30.07R
AUSTIN         MOCLDY    56  52  86 N7        30.07S
WACO           PTCLDY    50  47  89 NW5       30.08F
FORT WORTH     CLEAR     53  46  77 NW5       30.07F
WICHITA FALLS  CLEAR     48  44  86 SW7       30.09F
LUBBOCK        CLEAR     47  36  65 S5        30.10F
EL PASO        CLEAR     57  31  37 CALM      30.07F
$$

...MARINE OBSERVATIONS...

STATION/POSITION TIME  SKY/WX   TEMP    WIND        PRES    VSBY  WAVE   SWELL
                                AIR SEA DIR/SP/G                  HT/PER HT/PER
                 (UTC)          (F)     (DEG/KT/KT) (MB)    (MI)  (FT/S) (FT/S)
PORT ARANSAS     0900            65 76  360/ 16/ 17 1016.8F
BUOY 90 E PORT A 0850            70 76  360/ 17/ 21 1014.3F         5/ 5   2/14
BUOY 45 SE BAFFI 0850            69 74  360/ 17/ 21 1014.5F         6/ 7   2/12
BUOY 200 E PT IS 0850                                 N/A           5/ 8   5/ 8
BUOY 15 E GALVES 0850            67 74  350/ 17/ 19 1014.4R         3/ 4   2/ 7
$$



USA.gov is the U.S. government's official web portal to all federal, state and local government web resources and services.